When you browse on this site, cookies collect data to enhance your experience and personalize the content and advertising you see.
Visit our Privacy Policy to learn more. By continuing to use the site, you agree to this use of cookies and data.
  • En España
  • Lista de países
  • Para 7 días
  • Temperatura del agua
  • El tiempo en el mapa
  • Informadores
  • user-avatar
    Iniciar sesión

    Tiempo cada hora Porto Velho

    Hoy, 29 Febrero, Sábado

    Tiempo Temperatura Precipitaciones Viento Presión Humedad
    00:00 +23°C° 0 mm 0 mps 752 mmHg 98%
    01:00 +23°C° 0 mm 0 mps 752 mmHg 98%
    02:00 +23°C° 0 mm 0 mps 751 mmHg 98%
    03:00 +23°C° 0 mm 0 mps 751 mmHg 98%
    04:00 +23°C° 0 mm 0 mps 751 mmHg 98%
    05:00 +23°C° 0 mm 0 mps 751 mmHg 98%
    06:00 +23°C° 0 mm 0 mps 752 mmHg 97%
    07:00 +24°C° 0 mm 0 mps 753 mmHg 96%
    08:00 +24°C° 0 mm 0 mps 753 mmHg 96%
    09:00 +25°C° 0.6 mm 0 mps 754 mmHg 91%
    10:00 +27°C° 0.6 mm 0 mps 754 mmHg 87%
    11:00 +30°C° 0.6 mm 1 mps 754 mmHg 83%
    12:00 +30°C° 1.3 mm 1 mps 753 mmHg 81%
    13:00 +31°C° 1.3 mm 1 mps 752 mmHg 78%
    14:00 +32°C° 1.3 mm 1 mps 751 mmHg 75%
    15:00 +31°C° 1.6 mm 1 mps 750 mmHg 80%
    16:00 +28°C° 1.6 mm 0 mps 750 mmHg 85%
    17:00 +27°C° 1.6 mm 0 mps 749 mmHg 90%
    18:00 +26°C° 1.2 mm 0 mps 750 mmHg 91%
    19:00 +25°C° 1.2 mm 0 mps 750 mmHg 93%
    20:00 +24°C° 1.2 mm 0 mps 751 mmHg 95%
    21:00 +24°C° 0.3 mm 0 mps 751 mmHg 95%
    22:00 +24°C° 0.3 mm 0 mps 752 mmHg 96%
    23:00 +24°C° 0.3 mm 0 mps 752 mmHg 96%

    Mañana, 1 Marzo, Domingo

    Tiempo Temperatura Precipitaciones Viento Presión Humedad
    00:00 +23°C° 0.7 mm 0 mps 752 mmHg 97%
    01:00 +23°C° 0.7 mm 0 mps 751 mmHg 98%
    02:00 +23°C° 0.7 mm 0 mps 751 mmHg 98%
    03:00 +23°C° 2 mm 0 mps 751 mmHg 98%
    04:00 +23°C° 2 mm 0 mps 751 mmHg 99%
    05:00 +23°C° 2 mm 0 mps 751 mmHg 99%
    06:00 +23°C° 1.6 mm 0 mps 751 mmHg 99%
    07:00 +23°C° 1.6 mm 0 mps 752 mmHg 99%
    08:00 +23°C° 1.6 mm 0 mps 752 mmHg 98%
    09:00 +24°C° 0.5 mm 0 mps 753 mmHg 96%
    10:00 +27°C° 0.5 mm 1 mps 753 mmHg 93%
    11:00 +28°C° 0.5 mm 1 mps 753 mmHg 91%
    12:00 +28°C° 1.3 mm 1 mps 752 mmHg 90%
    13:00 +29°C° 1.3 mm 1 mps 751 mmHg 89%
    14:00 +29°C° 1.3 mm 1 mps 751 mmHg 88%
    15:00 +27°C° 0.8 mm 0 mps 750 mmHg 89%
    16:00 +27°C° 0.8 mm 0 mps 749 mmHg 89%
    17:00 +27°C° 0.8 mm 0 mps 748 mmHg 90%
    18:00 +26°C° 0.1 mm 0 mps 749 mmHg 92%
    19:00 +25°C° 0.1 mm 0 mps 749 mmHg 94%
    20:00 +24°C° 0.1 mm 0 mps 750 mmHg 96%
    21:00 +24°C° 0 mm 0 mps 750 mmHg 96%
    22:00 +24°C° 0 mm 0 mps 751 mmHg 96%
    23:00 +23°C° 0 mm 0 mps 751 mmHg 97%

    Pasado mañana, 2 Marzo, Lunes

    Tiempo Temperatura Precipitaciones Viento Presión Humedad
    00:00 +23°C° 0 mm 0 mps 751 mmHg 97%
    01:00 +23°C° 0 mm 0 mps 750 mmHg 97%
    02:00 +23°C° 0 mm 0 mps 750 mmHg 97%
    03:00 +23°C° 0 mm 0 mps 750 mmHg 97%
    04:00 +23°C° 0 mm 0 mps 750 mmHg 97%
    05:00 +23°C° 0 mm 0 mps 749 mmHg 96%
    06:00 +23°C° 0 mm 0 mps 750 mmHg 96%
    07:00 +24°C° 0 mm 0 mps 750 mmHg 95%
    08:00 +24°C° 0 mm 0 mps 751 mmHg 94%
    09:00 +26°C° 0.1 mm 0 mps 751 mmHg 86%
    10:00 +27°C° 0.1 mm 0 mps 751 mmHg 78%
    11:00 +29°C° 0.1 mm 0 mps 751 mmHg 71%
    12:00 +33°C° 0.1 mm 1 mps 750 mmHg 63%
    13:00 +34°C° 0.1 mm 1 mps 749 mmHg 56%
    14:00 +36°C° 0.1 mm 1 mps 748 mmHg 48%
    15:00 +35°C° 0 mm 1 mps 748 mmHg 50%
    16:00 +35°C° 0 mm 1 mps 747 mmHg 53%
    17:00 +34°C° 0 mm 1 mps 747 mmHg 55%
    18:00 +32°C° 0 mm 1 mps 747 mmHg 62%
    19:00 +30°C° 0 mm 1 mps 748 mmHg 69%
    20:00 +28°C° 0 mm 1 mps 748 mmHg 76%
    21:00 +28°C° 0 mm 1 mps 748 mmHg 79%
    22:00 +25°C° 0 mm 0 mps 749 mmHg 83%
    23:00 +25°C° 0 mm 0 mps 749 mmHg 86%

    3 Marzo, Martes

    Tiempo Temperatura Precipitaciones Viento Presión Humedad
    00:00 +24°C° 0 mm 0 mps 749 mmHg 88%
    01:00 +24°C° 0 mm 0 mps 749 mmHg 90%
    02:00 +23°C° 0 mm 0 mps 749 mmHg 92%
    03:00 +23°C° 0 mm 0 mps 749 mmHg 93%
    04:00 +23°C° 0 mm 0 mps 749 mmHg 93%
    05:00 +23°C° 0 mm 0 mps 749 mmHg 94%
    06:00 +24°C° 0 mm 0 mps 749 mmHg 90%
    07:00 +25°C° 0 mm 0 mps 750 mmHg 87%
    08:00 +26°C° 0 mm 0 mps 751 mmHg 83%
    09:00 +29°C° 0.2 mm 1 mps 751 mmHg 79%
    10:00 +31°C° 0.2 mm 1 mps 751 mmHg 74%
    11:00 +32°C° 0.2 mm 1 mps 751 mmHg 70%
    12:00 +32°C° 1 mm 1 mps 750 mmHg 72%
    13:00 +32°C° 1 mm 1 mps 749 mmHg 75%
    14:00 +32°C° 1 mm 1 mps 749 mmHg 77%
    15:00 +32°C° 0.8 mm 1 mps 748 mmHg 78%
    16:00 +29°C° 0.8 mm 0 mps 748 mmHg 78%
    17:00 +29°C° 0.8 mm 0 mps 747 mmHg 79%
    18:00 +27°C° 0.1 mm 0 mps 748 mmHg 84%
    19:00 +26°C° 0.1 mm 0 mps 748 mmHg 89%
    20:00 +25°C° 0.1 mm 0 mps 749 mmHg 94%
    21:00 +24°C° 0 mm 0 mps 749 mmHg 94%
    22:00 +24°C° 0 mm 0 mps 750 mmHg 95%
    23:00 +24°C° 0 mm 0 mps 751 mmHg 96%

    4 Marzo, Miércoles

    Tiempo Temperatura Precipitaciones Viento Presión Humedad
    00:00 +24°C° 0 mm 0 mps 750 mmHg 96%
    01:00 +23°C° 0 mm 0 mps 750 mmHg 97%
    02:00 +23°C° 0 mm 0 mps 750 mmHg 97%
    03:00 +23°C° 0 mm 0 mps 750 mmHg 97%
    04:00 +23°C° 0 mm 0 mps 750 mmHg 98%
    05:00 +22°C° 0 mm 0 mps 750 mmHg 98%
    06:00 +23°C° 0 mm 0 mps 750 mmHg 95%
    07:00 +24°C° 0 mm 0 mps 751 mmHg 91%
    08:00 +25°C° 0 mm 0 mps 751 mmHg 87%
    09:00 +28°C° 0 mm 0 mps 752 mmHg 75%
    10:00 +31°C° 0 mm 0 mps 752 mmHg 63%
    11:00 +34°C° 0 mm 0 mps 752 mmHg 51%
    12:00 +37°C° 0 mm 1 mps 751 mmHg 47%
    13:00 +37°C° 0 mm 1 mps 750 mmHg 43%
    14:00 +39°C° 0 mm 1 mps 749 mmHg 39%
    15:00 +37°C° 0 mm 1 mps 749 mmHg 44%
    16:00 +36°C° 0 mm 1 mps 748 mmHg 49%
    17:00 +35°C° 0 mm 1 mps 747 mmHg 54%
    18:00 +33°C° 0.1 mm 1 mps 748 mmHg 63%
    19:00 +30°C° 0.1 mm 1 mps 749 mmHg 72%
    20:00 +28°C° 0.1 mm 1 mps 749 mmHg 81%
    21:00 +28°C° 0 mm 1 mps 750 mmHg 85%
    22:00 +27°C° 0 mm 1 mps 750 mmHg 88%
    23:00 +26°C° 0 mm 1 mps 751 mmHg 91%

    5 Marzo, Jueves

    Tiempo Temperatura Precipitaciones Viento Presión Humedad
    00:00 +26°C° 0 mm 1 mps 751 mmHg 93%
    01:00 +25°C° 0 mm 1 mps 751 mmHg 95%
    02:00 +23°C° 0 mm 0 mps 751 mmHg 97%
    03:00 +23°C° 0 mm 0 mps 751 mmHg 97%
    04:00 +23°C° 0 mm 0 mps 750 mmHg 98%
    05:00 +22°C° 0 mm 0 mps 750 mmHg 99%
    06:00 +23°C° 0 mm 0 mps 751 mmHg 95%
    07:00 +26°C° 0 mm 1 mps 751 mmHg 90%
    08:00 +27°C° 0 mm 1 mps 752 mmHg 86%
    09:00 +30°C° 0 mm 1 mps 752 mmHg 75%
    10:00 +32°C° 0 mm 1 mps 752 mmHg 65%
    11:00 +35°C° 0 mm 1 mps 752 mmHg 54%
    12:00 +35°C° 0 mm 1 mps 751 mmHg 52%
    13:00 +34°C° 0 mm 0 mps 750 mmHg 50%
    14:00 +34°C° 0 mm 0 mps 749 mmHg 47%
    15:00 +33°C° 0.3 mm 0 mps 748 mmHg 57%
    16:00 +31°C° 0.3 mm 0 mps 748 mmHg 67%
    17:00 +31°C° 0.3 mm 1 mps 747 mmHg 77%
    18:00 +29°C° 0.8 mm 1 mps 748 mmHg 83%
    19:00 +28°C° 0.8 mm 1 mps 748 mmHg 89%
    20:00 +26°C° 0.8 mm 1 mps 749 mmHg 95%
    21:00 +26°C° 0.2 mm 1 mps 749 mmHg 95%
    22:00 +26°C° 0.2 mm 1 mps 750 mmHg 94%
    23:00 +24°C° 0.2 mm 0 mps 751 mmHg 94%
    Mostrar más